sat.trackr.live / text

‹ back to catalog

STARLINK-37419

NORAD 69197 · 2026-114R

PAYLOAD ACTIVE UNKNOWN

§ Identity

Operator
Country
US
Launch date
2026-05-25
Launch site
AFETR
Launch vehicle
Mass (kg)
RCS (m²)

Purposes: comms

External: N2YO · Heavens-Above · Gunter

§ Orbital elements

Epoch: 2026-09-20T00:38:39.780384Z

Period
93.85 min
Inclination
53.1564°
Eccentricity
0.0001117
Mean motion
15.34388461 rev/d
Perigee alt
462.0 km
Apogee alt
463.5 km
Semi-major
6,840.9 km
B*
3.8865e-4
RAAN
115.9182°
Arg perigee
83.3757°
Mean anomaly
276.7372°
Rev number
1,937

§ Raw data

STARLINK-374191 69197U 26114R   26263.02684931  .00012772  00000+0  38865-3 0  99992 69197  53.1564 115.9182 0001117  83.3757 276.7372 15.34388461 19375

JSON: /api/v1/satellites/69197 · /tle

For live sub-satellite position, see the globe view (requires WebGL).

§ Visibility from observer

Set your observer location to see the next 7 days of passes ≥ 10°. The values pass through the URL so the page stays shareable.

No JS? Fill the form by hand. The geolocation button needs JavaScript.